Home   Weather   Campo Grande   Past weeks

Flag for Brazil Past Weather in Campo Grande, Mato Grosso Do Sul, Brazil — Yesterday and Last 2 Weeks

Now
64 °F

Sunny.


Feels Like: 64 °F
Forecast: 64 / 84 °F
Wind: 12 mph from Southeast

Location: Campo Grande Aeroporto

Current Time: Sep 25, 2016 at 8:15:02 AM

Latest Report: Sep 25, 2016 at 7:00 AM


Visibility: 10 mi

Pressure: 30.07 "Hg (28.30 "Hg at 516m altitude)

Humidity: 73%

Dew Point: 55 °F

Location of Campo GrandeLocation

Past Weather in Campo Grande — Graph

°F

Campo Grande Temperature Yesterday

Maximum temperature yesterday: 88 °F (at 2:00 PM)
Minimum temperature yesterday: 63 °F (at 5:00 AM)
Average temperature yesterday: 75 °F

High & Low Weather Summary for the Past Weeks

 TemperatureHumidityPressure
High95 °F (Sep 12, 1:00 PM)88% (Sep 13, 10:00 PM)30.15 "Hg (Sep 13, 10:00 PM)
Low57 °F (Sep 15, 6:00 AM)16% (Sep 23, 3:00 PM)29.77 "Hg (Sep 12, 3:00 PM)
Average75 °F46%30.00 "Hg
* Reported Sep 10 7:00 AM — Sep 25 7:00 AM, Campo Grande, Weather by CustomWeather, © 2016

Note: Actual official high and low records may vary slightly from our data, if they occured in-between our weather recording intervals... More about our weather records

Advertising

Campo Grande Weather History for the Previous 24 Hours

Scroll right to see more
 ConditionsComfort  
Time TempWeatherWind HumidityBarometerVisibility
7:00 AM
Sun, Sep 25
64 °FSunny.12 mph73%30.07 "Hg10 mi
6:00 AM64 °FSunny.8 mph73%30.04 "Hg10 mi
5:00 AM64 °FPassing clouds.9 mph78%30.04 "HgN/A
4:00 AM66 °FPassing clouds.12 mph73%30.01 "HgN/A
3:00 AM66 °FPassing clouds.12 mph73%30.01 "HgN/A
2:00 AM68 °FClear.12 mph69%30.01 "Hg10 mi
1:00 AM70 °FClear.9 mph64%30.01 "Hg10 mi
12:00 AM70 °FClear.9 mph64%30.04 "Hg10 mi
11:00 PM
Sat, Sep 24
72 °FPassing clouds.9 mph61%30.04 "HgN/A
10:00 PM73 °FPassing clouds.6 mph57%30.07 "HgN/A
9:00 PM72 °FClear.2 mph61%30.04 "Hg10 mi
8:00 PM73 °FClear.6 mph57%30.04 "Hg10 mi
7:00 PM75 °FClear.8 mph54%30.01 "Hg10 mi
6:00 PM77 °FClear.8 mph44%30.01 "Hg10 mi
5:00 PM81 °FSunny.6 mph37%30.01 "Hg10 mi
4:00 PM86 °FSunny.9 mph29%29.98 "Hg10 mi
3:00 PM88 °FSunny.6 mph25%29.98 "Hg10 mi
2:00 PM88 °FPassing clouds.7 mph27%30.01 "HgN/A
1:00 PM86 °FSunny.No wind29%30.04 "Hg10 mi
12:00 PM84 °FSunny.3 mph31%30.07 "Hg10 mi
11:00 AM84 °FSunny.6 mph31%30.09 "Hg10 mi
10:00 AM81 °FPassing clouds.6 mph37%30.09 "HgN/A
9:00 AM77 °FPassing clouds.7 mph44%30.12 "HgN/A
8:00 AM72 °FSunny.7 mph53%30.12 "Hg10 mi
Weather by CustomWeather, © 2016

See weather overviewHow to use our weather pages